IRIDIUM 33 DEB, 33866

Orbit data source: Space-Track

IRIDIUM 33 DEB, 33866 is space debris in LEO originally from a launch on Sun, 14 Sep 1997 UTC launched from the Tyuratam Missile And Space Complex (TTMTR). The debris from Iridium 33, an American commercial communications satellite, has been tracked extensively since its accidental collision with the defunct Russian satellite Cosmos 2251 in 2009. This event, occurring at high speed in low Earth orbit (LEO), generated thousands of pieces of space debris, significantly increasing the risk of further collisions. The Iridium 33 debris cloud has impacted space traffic management and orbital debris mitigation strategies, making it a subject of ongoing study in space situational awareness.

Loading next visibility...
Identifier
33866, 1997-051AK
Orbit
LEO
Country
Flag of USUS
Related business
Manufacturer
Unknown
Mission
Spacecraft
Bus & Motor
Unknown
Mass
Unknown
Launch date (UTC)
1997-09-14 (29 years ago)
Launch vehicle
Unknown
Launch site
Tyuratam Missile And Space Complex (TTMTR)
Object type
Payload
Rocket body
Debris
Shape & HBR
Unknown shape, 0.2 m
Radar Cross Section
Medium (>0.1 m² and <1 m²)

Expand to show TLE details & history
Last TLE update: 17 hours ago

TLE from 17 hours ago
0 IRIDIUM 33 DEB
1 33866U 97051AK  26266.15924817  .00001371  00000-0  52450-3 0  9998
2 33866  86.3052 332.5660 0109197 326.9674  61.2488 14.26812535908644
Epoch: 2026-09-23T03:49Z
TLE epoch observation values (Epoch: 2026-09-23T03:49:19.041Z)
Latitude
29.30099°
Longitude
-84.71196°
Altitude
769.106 km
Speed
7.491 km/s
True Right ascension
22h 18m 31s
True Declination
29° 09' 17"
Sunlit
Object was in full shadow at epoch
Visualization orbit readout
Latitude
Unknown
Longitude
Unknown
Altitude
Unknown
Speed
Unknown
Apparent Right ascension
Unknown
Apparent Declination
Unknown
Sunlit
N/A
Visualization observer readout
Local Sidereal Time
13:43:01
Azimuth
Unknown
Elevation
Unknown
Doppler factor
Unknown
Orbital elements
Apogee altitude
877.758 km
Perigee altitude
721.005 km
Semi-major axis
7,177.518 km
Eccentricity
0.01092
Inclination
86.3052°
RAAN
332.566°
Arg. of periapsis
326.9674°
True anomaly
62.35302°
Mean anomaly
61.2488°
Eccentric anomaly
61.80019°
Mean motion
3.56929 °/min
Orbital period
100.86 mins
BSTAR
0.0005245

Documentation

Showing up to 5 results
|